Time,TemperatureF,DewpointF,PressureIn,WindDirection,WindDirectionDegrees,WindSpeedMPH,WindSpeedGustMPH,Humidity,HourlyPrecipIn,Conditions,Clouds,dailyrainin,SoftwareType,DateUTC
2013-06-06 00:07:00,57.6,44.0,29.86,WSW,244,0.0,0.0,60,0.00,,,0.00,weatherlink.com 1.10,2013-06-06 06:07:00,
2013-06-06 00:22:00,56.6,44.0,29.87,WSW,249,0.0,0.0,62,0.00,,,0.00,weatherlink.com 1.10,2013-06-06 06:22:00,
2013-06-06 00:37:00,56.4,44.0,29.87,West,259,0.0,0.0,64,0.00,,,0.00,weatherlink.com 1.10,2013-06-06 06:37:00,
2013-06-06 00:52:00,55.1,44.0,29.87,WNW,293,0.0,3.0,66,0.00,,,0.00,weatherlink.com 1.10,2013-06-06 06:52:00,
2013-06-06 01:07:00,54.6,44.0,29.87,WNW,290,0.0,0.0,67,0.00,,,0.00,weatherlink.com 1.10,2013-06-06 07:07:00,
2013-06-06 01:22:00,54.3,44.0,29.87,WNW,290,0.0,0.0,68,0.00,,,0.00,weatherlink.com 1.10,2013-06-06 07:22:00,
2013-06-06 01:37:00,53.8,44.0,29.87,WNW,290,0.0,0.0,69,0.00,,,0.00,weatherlink.com 1.10,2013-06-06 07:37:00,
2013-06-06 01:53:00,53.5,44.0,29.87,NW,304,0.0,0.0,70,0.00,,,0.00,weatherlink.com 1.10,2013-06-06 07:53:00,
2013-06-06 02:08:00,53.7,44.0,29.87,NW,315,0.0,0.0,69,0.00,,,0.00,weatherlink.com 1.10,2013-06-06 08:08:00,
2013-06-06 02:23:00,53.9,44.0,29.88,NNW,338,0.0,0.0,69,0.00,,,0.00,weatherlink.com 1.10,2013-06-06 08:23:00,
2013-06-06 02:38:00,53.0,44.0,29.88,NNW,338,0.0,0.0,71,0.00,,,0.00,weatherlink.com 1.10,2013-06-06 08:38:00,
2013-06-06 02:53:00,52.2,44.0,29.88,NW,321,0.0,0.0,73,0.00,,,0.00,weatherlink.com 1.10,2013-06-06 08:53:00,
2013-06-06 03:08:00,52.2,44.0,29.89,NW,319,0.0,0.0,74,0.00,,,0.00,weatherlink.com 1.10,2013-06-06 09:08:00,
2013-06-06 03:23:00,50.6,44.0,29.89,WNW,285,0.0,0.0,77,0.00,,,0.00,weatherlink.com 1.10,2013-06-06 09:23:00,
2013-06-06 03:38:00,50.4,43.0,29.89,WNW,299,0.0,0.0,77,0.00,,,0.00,weatherlink.com 1.10,2013-06-06 09:38:00,
2013-06-06 03:53:00,50.2,44.0,29.89,NW,324,0.0,3.0,78,0.00,,,0.00,weatherlink.com 1.10,2013-06-06 09:53:00,
2013-06-06 04:08:00,49.1,44.0,29.90,NW,324,0.0,0.0,81,0.00,,,0.00,weatherlink.com 1.10,2013-06-06 10:08:00,
2013-06-06 04:23:00,47.9,42.0,29.90,NW,321,0.0,0.0,81,0.00,,,0.00,weatherlink.com 1.10,2013-06-06 10:23:00,
2013-06-06 04:38:00,47.3,42.0,29.90,WNW,301,0.0,0.0,83,0.00,,,0.00,weatherlink.com 1.10,2013-06-06 10:38:00,
2013-06-06 04:53:00,47.4,43.0,29.91,WNW,302,0.0,0.0,83,0.00,,,0.00,weatherlink.com 1.10,2013-06-06 10:53:00,
2013-06-06 05:08:00,47.4,43.0,29.91,NW,311,1.0,2.0,84,0.00,,,0.00,weatherlink.com 1.10,2013-06-06 11:08:00,
2013-06-06 05:23:00,47.4,43.0,29.91,WNW,293,0.0,2.0,85,0.00,,,0.00,weatherlink.com 1.10,2013-06-06 11:23:00,
2013-06-06 05:38:00,46.7,43.0,29.92,WNW,292,0.0,0.0,86,0.00,,,0.00,weatherlink.com 1.10,2013-06-06 11:38:00,
2013-06-06 05:53:00,46.6,43.0,29.93,WNW,292,0.0,0.0,86,0.00,,,0.00,weatherlink.com 1.10,2013-06-06 11:53:00,
2013-06-06 06:08:00,46.0,43.0,29.95,NE,42,1.0,12.0,88,0.00,,,0.00,weatherlink.com 1.10,2013-06-06 12:08:00,
2013-06-06 06:23:00,47.3,43.0,29.96,West,281,5.0,6.0,86,0.00,,,0.00,weatherlink.com 1.10,2013-06-06 12:23:00,
2013-06-06 06:38:00,46.7,44.0,29.98,WNW,296,2.0,9.0,89,0.00,,,0.00,weatherlink.com 1.10,2013-06-06 12:38:00,
2013-06-06 06:53:00,49.2,45.0,29.98,NNW,336,3.0,4.0,85,0.00,,,0.00,weatherlink.com 1.10,2013-06-06 12:53:00,
2013-06-06 07:08:00,52.6,46.0,29.99,NW,317,3.0,6.0,78,0.00,,,0.00,weatherlink.com 1.10,2013-06-06 13:08:00,
2013-06-06 07:23:00,55.2,46.0,29.99,North,5,0.0,9.0,71,0.00,,,0.00,weatherlink.com 1.10,2013-06-06 13:23:00,
2013-06-06 07:38:00,57.0,46.0,29.99,NE,46,3.0,8.0,68,0.00,,,0.00,weatherlink.com 1.10,2013-06-06 13:38:00,
2013-06-06 07:53:00,57.6,46.0,29.99,North,9,2.0,8.0,66,0.00,,,0.00,weatherlink.com 1.10,2013-06-06 13:53:00,
2013-06-06 08:08:00,58.6,46.0,29.99,North,355,6.0,7.0,64,0.00,,,0.00,weatherlink.com 1.10,2013-06-06 14:08:00,
2013-06-06 08:23:00,59.3,47.0,29.99,North,11,1.0,8.0,63,0.00,,,0.00,weatherlink.com 1.10,2013-06-06 14:23:00,
2013-06-06 08:39:00,60.2,46.0,29.99,NE,54,2.0,6.0,60,0.00,,,0.00,weatherlink.com 1.10,2013-06-06 14:39:00,
2013-06-06 08:54:00,60.7,47.0,29.99,North,5,3.0,8.0,61,0.00,,,0.00,weatherlink.com 1.10,2013-06-06 14:54:00,
2013-06-06 09:09:00,60.8,47.0,29.98,NW,319,5.0,6.0,60,0.00,,,0.00,weatherlink.com 1.10,2013-06-06 15:09:00,
2013-06-06 09:24:00,61.0,47.0,29.99,North,355,6.0,8.0,60,0.00,,,0.00,weatherlink.com 1.10,2013-06-06 15:24:00,
2013-06-06 09:39:00,61.8,47.0,29.99,North,350,1.0,7.0,59,0.00,,,0.00,weatherlink.com 1.10,2013-06-06 15:39:00,
2013-06-06 09:54:00,62.1,47.0,29.99,NE,43,2.0,6.0,58,0.00,,,0.00,weatherlink.com 1.10,2013-06-06 15:54:00,
2013-06-06 10:09:00,62.3,47.0,29.98,ENE,65,1.0,8.0,58,0.00,,,0.00,weatherlink.com 1.10,2013-06-06 16:09:00,
2013-06-06 10:24:00,63.1,47.0,29.98,ENE,63,3.0,5.0,56,0.00,,,0.00,weatherlink.com 1.10,2013-06-06 16:24:00,
2013-06-06 10:39:00,63.8,47.0,29.98,North,360,1.0,5.0,54,0.00,,,0.00,weatherlink.com 1.10,2013-06-06 16:39:00,
2013-06-06 10:54:00,64.4,48.0,29.97,ENE,57,2.0,5.0,56,0.00,,,0.00,weatherlink.com 1.10,2013-06-06 16:54:00,
2013-06-06 11:09:00,64.7,48.0,29.96,North,11,1.0,5.0,55,0.00,,,0.00,weatherlink.com 1.10,2013-06-06 17:09:00,
2013-06-06 11:24:00,65.2,47.0,29.96,NNW,343,2.0,6.0,53,0.00,,,0.00,weatherlink.com 1.10,2013-06-06 17:24:00,
2013-06-06 11:39:00,65.8,48.0,29.95,NW,304,2.0,6.0,53,0.00,,,0.00,weatherlink.com 1.10,2013-06-06 17:39:00,
2013-06-06 11:54:00,66.6,48.0,29.94,North,5,3.0,4.0,51,0.00,,,0.00,weatherlink.com 1.10,2013-06-06 17:54:00,
2013-06-06 12:09:00,67.4,48.0,29.94,North,5,0.0,4.0,50,0.00,,,0.00,weatherlink.com 1.10,2013-06-06 18:09:00,
2013-06-06 12:24:00,68.0,47.0,29.93,North,355,0.0,4.0,48,0.00,,,0.00,weatherlink.com 1.10,2013-06-06 18:24:00,
2013-06-06 12:40:00,68.9,48.0,29.93,North,360,1.0,6.0,47,0.00,,,0.00,weatherlink.com 1.10,2013-06-06 18:40:00,
2013-06-06 12:54:00,69.3,49.0,29.91,WNW,292,1.0,5.0,48,0.00,,,0.00,weatherlink.com 1.10,2013-06-06 18:54:00,
2013-06-06 13:09:00,70.1,48.0,29.91,NNW,340,1.0,5.0,46,0.00,,,0.00,weatherlink.com 1.10,2013-06-06 19:09:00,
2013-06-06 13:24:00,71.2,50.0,29.90,NNE,23,1.0,6.0,48,0.00,,,0.00,weatherlink.com 1.10,2013-06-06 19:24:00,
2013-06-06 13:39:00,71.7,51.0,29.90,NNE,21,4.0,6.0,48,0.00,,,0.00,weatherlink.com 1.10,2013-06-06 19:39:00,
2013-06-06 13:54:00,72.6,49.0,29.89,NNW,347,4.0,7.0,44,0.00,,,0.00,weatherlink.com 1.10,2013-06-06 19:54:00,
2013-06-06 14:09:00,73.5,50.0,29.89,WNW,292,0.0,7.0,44,0.00,,,0.00,weatherlink.com 1.10,2013-06-06 20:09:00,
2013-06-06 14:24:00,74.6,51.0,29.88,North,11,5.0,6.0,44,0.00,,,0.00,weatherlink.com 1.10,2013-06-06 20:24:00,
2013-06-06 14:39:00,74.2,51.0,29.87,NNE,28,3.0,5.0,45,0.00,,,0.00,weatherlink.com 1.10,2013-06-06 20:39:00,
2013-06-06 14:54:00,75.4,51.0,29.86,NNW,340,2.0,6.0,42,0.00,,,0.00,weatherlink.com 1.10,2013-06-06 20:54:00,
2013-06-06 15:09:00,76.0,54.0,29.86,NE,35,0.0,8.0,47,0.00,,,0.00,weatherlink.com 1.10,2013-06-06 21:09:00,
2013-06-06 15:25:00,76.8,53.0,29.85,NNW,346,2.0,6.0,44,0.00,,,0.00,weatherlink.com 1.10,2013-06-06 21:25:00,
2013-06-06 15:40:00,77.2,53.0,29.84,NNE,25,5.0,7.0,43,0.00,,,0.00,weatherlink.com 1.10,2013-06-06 21:40:00,
2013-06-06 15:55:00,77.6,52.0,29.83,NNW,327,1.0,7.0,41,0.00,,,0.00,weatherlink.com 1.10,2013-06-06 21:55:00,
2013-06-06 16:10:00,78.3,51.0,29.82,SSE,157,0.0,5.0,38,0.00,,,0.00,weatherlink.com 1.10,2013-06-06 22:10:00,
2013-06-06 16:25:00,78.2,50.0,29.81,SSE,157,2.0,5.0,37,0.00,,,0.00,weatherlink.com 1.10,2013-06-06 22:25:00,
2013-06-06 16:40:00,78.3,48.0,29.80,ESE,123,1.0,9.0,34,0.00,,,0.00,weatherlink.com 1.10,2013-06-06 22:40:00,
2013-06-06 16:55:00,78.7,48.0,29.80,South,176,2.0,8.0,34,0.00,,,0.00,weatherlink.com 1.10,2013-06-06 22:55:00,
2013-06-06 17:10:00,78.6,48.0,29.80,South,173,2.0,13.0,34,0.00,,,0.00,weatherlink.com 1.10,2013-06-06 23:10:00,
2013-06-06 17:25:00,79.3,49.0,29.79,SSE,154,3.0,10.0,35,0.00,,,0.00,weatherlink.com 1.10,2013-06-06 23:25:00,
2013-06-06 17:40:00,79.3,47.0,29.79,SSE,160,1.0,12.0,32,0.00,,,0.00,weatherlink.com 1.10,2013-06-06 23:40:00,
2013-06-06 17:55:00,79.6,47.0,29.78,SSE,162,0.0,10.0,32,0.00,,,0.00,weatherlink.com 1.10,2013-06-06 23:55:00,
2013-06-06 18:10:00,78.2,48.0,29.78,SE,141,0.0,9.0,34,0.00,,,0.00,weatherlink.com 1.10,2013-06-07 00:10:00,
2013-06-06 18:25:00,77.4,48.0,29.77,SE,130,2.0,5.0,35,0.00,,,0.00,weatherlink.com 1.10,2013-06-07 00:25:00,
2013-06-06 18:40:00,78.2,49.0,29.77,SSE,155,2.0,3.0,36,0.00,,,0.00,weatherlink.com 1.10,2013-06-07 00:40:00,
2013-06-06 18:55:00,78.5,48.0,29.77,SSE,166,1.0,7.0,34,0.00,,,0.00,weatherlink.com 1.10,2013-06-07 00:55:00,
2013-06-06 19:10:00,78.4,51.0,29.77,SSE,150,2.0,4.0,38,0.00,,,0.00,weatherlink.com 1.10,2013-06-07 01:10:00,
2013-06-06 19:25:00,77.8,48.0,29.77,SE,145,1.0,8.0,35,0.00,,,0.00,weatherlink.com 1.10,2013-06-07 01:25:00,
2013-06-06 19:40:00,77.5,51.0,29.77,NNE,23,0.0,4.0,39,0.00,,,0.00,weatherlink.com 1.10,2013-06-07 01:40:00,
2013-06-06 19:55:00,76.8,51.0,29.77,East,81,0.0,6.0,40,0.00,,,0.00,weatherlink.com 1.10,2013-06-07 01:55:00,
2013-06-06 20:10:00,76.2,53.0,29.77,NW,326,3.0,5.0,44,0.00,,,0.00,weatherlink.com 1.10,2013-06-07 02:10:00,
2013-06-06 20:25:00,75.6,54.0,29.77,NE,54,0.0,1.0,47,0.00,,,0.00,weatherlink.com 1.10,2013-06-07 02:25:00,
2013-06-06 20:40:00,74.2,51.0,29.77,North,355,0.0,3.0,45,0.00,,,0.00,weatherlink.com 1.10,2013-06-07 02:40:00,
2013-06-06 20:55:00,72.9,51.0,29.77,NNE,13,3.0,3.0,47,0.00,,,0.00,weatherlink.com 1.10,2013-06-07 02:55:00,
2013-06-06 21:10:00,70.8,52.0,29.77,NNE,17,1.0,4.0,51,0.00,,,0.00,weatherlink.com 1.10,2013-06-07 03:10:00,
2013-06-06 21:25:00,68.4,52.0,29.77,NNW,339,5.0,5.0,57,0.00,,,0.00,weatherlink.com 1.10,2013-06-07 03:25:00,
2013-06-06 21:40:00,66.7,52.0,29.78,NW,313,2.0,2.0,59,0.00,,,0.00,weatherlink.com 1.10,2013-06-07 03:40:00,
2013-06-06 21:55:00,66.6,51.0,29.78,North,360,0.0,0.0,57,0.00,,,0.00,weatherlink.com 1.10,2013-06-07 03:55:00,
2013-06-06 22:10:00,65.6,52.0,29.78,North,355,0.0,0.0,61,0.00,,,0.00,weatherlink.com 1.10,2013-06-07 04:10:00,
2013-06-06 22:25:00,64.3,51.0,29.79,WNW,293,0.0,1.0,62,0.00,,,0.00,weatherlink.com 1.10,2013-06-07 04:25:00,
2013-06-06 22:40:00,63.2,51.0,29.79,WNW,292,0.0,0.0,64,0.00,,,0.00,weatherlink.com 1.10,2013-06-07 04:40:00,
2013-06-06 22:55:00,62.7,49.0,29.79,WNW,292,0.0,0.0,61,0.00,,,0.00,weatherlink.com 1.10,2013-06-07 04:55:00,
2013-06-06 23:10:00,62.5,48.0,29.79,WNW,292,0.0,0.0,60,0.00,,,0.00,weatherlink.com 1.10,2013-06-07 05:10:00,
2013-06-06 23:25:00,62.1,48.0,29.79,WNW,292,0.0,1.0,61,0.00,,,0.00,weatherlink.com 1.10,2013-06-07 05:25:00,
2013-06-06 23:40:00,61.5,50.0,29.79,NW,308,0.0,0.0,67,0.00,,,0.00,weatherlink.com 1.10,2013-06-07 05:40:00,
2013-06-06 23:55:00,60.5,50.0,29.79,North,11,0.0,0.0,69,0.00,,,0.00,weatherlink.com 1.10,2013-06-07 05:55:00,